Location: Unspecified
(49.2170°N, 0.0000°E)
Time: 16:08:45
(UTC+00:00)

Envisat - Pass Details

Date: 27 November 2020
Orbit: 764 x 766 km, 98.1° (Epoch: 20 January)

Event Time Altitude Azimuth Distance (km) Brightness Sun altitude
Rises 06:05:25 0° 14° (NNE) 3,247 6.2 -13.1°
Reaches altitude 10° 06:07:44 10° 14° (NNE) 2,316 5.5 -12.8°
Maximum altitude 06:12:51 88° 104° (ESE) 774 3.0 -12.0°
Drops below altitude 10° 06:17:56 10° 195° (SSW) 2,298 5.5 -11.2°
Sets 06:20:13 0° 195° (SSW) 3,219 6.3 -10.8°
